sat.trackr.live / text

‹ back to catalog

STARLINK-4366

NORAD 53227 · 2022-084AQ

PAYLOAD ACTIVE UNKNOWN

§ Identity

Operator
Country
US
Launch date
2022-07-22
Launch site
AFWTR
Launch vehicle
Mass (kg)
RCS (m²)

Purposes: comms

External: N2YO · Heavens-Above · Gunter

§ Orbital elements

Epoch: 2026-09-19T22:19:05.471616Z

Period
93.91 min
Inclination
97.2848°
Eccentricity
0.0001474
Mean motion
15.33444042 rev/d
Perigee alt
464.5 km
Apogee alt
466.6 km
Semi-major
6,843.7 km
B*
1.3051e-5
RAAN
318.5856°
Arg perigee
93.7282°
Mean anomaly
266.4129°
Rev number
22,866

§ Raw data

STARLINK-43661 53227U 22084AQ  26262.92992444  .00000346  00000+0  13051-4 0  99922 53227  97.2848 318.5856 0001474  93.7282 266.4129 15.33444042228666

JSON: /api/v1/satellites/53227 · /tle

For live sub-satellite position, see the globe view (requires WebGL).

§ Visibility from observer

Set your observer location to see the next 7 days of passes ≥ 10°. The values pass through the URL so the page stays shareable.

No JS? Fill the form by hand. The geolocation button needs JavaScript.